ROMMA est une association bénévole à but non lucratif. Votre soutien est indispensable : ADHERER à ROMMA ou FAIRE un DON

Crempigny - (74, Haute-Savoie)

Albanais-Montagne des Princes (500 m)   Longitude: 05° 54' 5" E   Latitude: 45° 57' 0" N Station partenaire n°10
 

Détail journalier du     <<     >>

Température Precipitation Humidité Pression Vent Dir Rafale Dir. rafale Ensol. 20 cm au dessus du sol
Heure (°C) (mm) (%) (hPa) (km/h) (km/h) (min) (°C)
01:00 6.109310021NNO5NNO05.6
02:00 5.809310032NNO5NNO05.6
03:00 5.709410031NO6N05.0
04:00 5.409410041NO5NO05.0
05:00 5.609410042NO5NO05.0
06:00 5.809310042NO5NO05.0
07:00 4.609510051NO6NO03.9
08:00 4.709610062NO6NO04.4
09:00 4.809710062NO6NO05.6
10:00 5.109710083S8NNE06.1
11:00 6.709410082NNE8SSE07.2
12:00 6.909410081SSE10S010.0
13:00 7.709210083SSO10S511.1
14:00 8.509010082SSO8SSO1011.1
15:00 9.108810091SO6SSO09.4
16:00 8.409010092S8SSO158.3
17:00 8.109110091S6NNE307.2
18:00 7.709110101NNO6NNO06.1
19:00 7.109310101NNO6NNO06.1
20:00 6.809410102NNO6NNO05.6
21:00 6.409510102NNO6NNO05.6
22:00 6.309610101NNO5NNO06.1
23:00 6.509610101NNO5NNO06.7
minuit 6.4096101103NNO06.1

Graphique du 24-11-2019

 

Serveur OMMA